Location: Newark
(35.2672°N, 80.7344°W)
Time: 00:02:29
(UTC+00:00)

A-11 Canister half - Pass Details

Date: 30 January 2020
Orbit: 1524 x 1684 km, 47.3° (Epoch: 26 February)

Event Time Altitude Azimuth Distance (km) Brightness Sun altitude
Rises 02:57:20 0° 303° (WNW) 4,726 12.2 -50.8°
Reaches altitude 10° 03:00:26 10° 306° (NW) 3,759 11.4 -51.4°
Enters shadow 03:04:19 28° 314° (NW) 2,627 10.4 -52.2°
